Regional Weather Roundup
Issued by NWS

Home | Current Version | Previous Version | Text Only | Print | Product List | Glossary On
Versions: 1 2 3 4 5 6 7 8 9 10 11 12 13 14 15 16 17 18 19 20 21 22 23 24 25 26 27 28 29 30 31 32 33 34 35 36 37 38 39 40 41 42 43 44 45 46 47 48 49 50
000
ASUS45 KABQ 010210
RWRNM
NEW MEXICO REGIONAL WEATHER ROUNDUP
NATIONAL WEATHER SERVICE ALBUQUERQUE NM
800 PM MDT MON AUG 31 2015

NOTE: "FAIR" MEANS FEW OR NO CLOUDS BELOW 12,000 FEET AGL WITH NO
       SIGNIFICANT WEATHER OR OBSTRUCTIONS TO VISION.

      THIS PRODUCT IS RELEASED AS TWO VERSIONS.  ONE VERSION NEAR
      THE TOP OF THE HOUR CONTAINING PRELIMINARY DATA FROM ALBUQUERQUE
      AND OTHER STATIONS.  A FINAL VERSION WITH ADDITIONAL DATA IS
      ISSUED ABOUT 10 MINUTES AFTER THE HOUR.

NMZ501-503-504-510>518-010300-
NORTHWEST PLATEAU/NORTHCENTRAL MOUNTAINS

CITY           SKY/WX    TMP DP  RH WIND       PRES   REMARKS
FARMINGTON     CLEAR     78  46  32 W12       30.10S
LOS ALAMOS     MOCLDY    74  46  35 NW5       30.23S
SANTA FE       MOCLDY    73  47  39 W13       30.16R
TAOS           MOCLDY    63  45  51 N9        30.25R
ANGEL FIRE     RAIN      56  51  82 NE7       30.36R

$$
NMZ402-403-502-505>509-010300-
WESTCENTRAL MOUNTAINS/SOUTHWEST MOUNTAINS

CITY           SKY/WX    TMP DP  RH WIND       PRES   REMARKS
GALLUP         CLOUDY    67  50  54 E12       30.25R
GRANTS         CLOUDY    65  51  60 NW7       30.26R
SILVER CITY      N/A     75  41  29 N16G25    30.13F

$$
NMZ407-409-411-412-010300-
SOUTHERN DESERTS

CITY           SKY/WX    TMP DP  RH WIND       PRES   REMARKS
DEMING         MOCLDY    81  51  35 NW20G30   30.03R
LAS CRUCES     PTCLDY    83  35  18 W6        30.03R
HOLLOMAN AFB   PTCLDY    86  49  27 N6        29.98R
ALAMOGORDO     MOCLDY    84  48  28 NW9       30.00R
T OR C         MOCLDY    79  50  36 NW14      30.06S

$$
NMZ519>523-010300-
CENTRAL VALLEYS/CENTRAL HIGHLANDS

CITY           SKY/WX    TMP DP  RH WIND       PRES   REMARKS
ALBUQUERQUE    CLOUDY    80  48  32 N8        30.12R
DOUBLE EAGLE   MOCLDY    73  46  38 W8        30.15F
MORIARTY ARPT  FAIR      69  47  45 NW5       30.17R
CLINES CORNERS MOCLDY    71  42  35 NW8       30.21R
BELEN          FAIR      79  44  28 W10       30.10R
SOCORRO        FAIR      78  46  32 CALM      30.06S

$$
NMZ524>526-539-540-010300-
SOUTHCENTRAL MOUNTAINS

CITY           SKY/WX    TMP DP  RH WIND       PRES   REMARKS
RUIDOSO        MOCLDY    72  48  43 MISG      30.25R

$$
NMZ527>531-010300-
NORTHEAST HIGHLANDS/NORTHEAST PLAINS

CITY           SKY/WX    TMP DP  RH WIND       PRES   REMARKS
LAS VEGAS      PTCLDY    70  46  42 NW6       30.18S
RATON          MOCLDY    70  44  39 N7        30.14R
CLAYTON        CLOUDY    77  50  38 N8        30.03S

$$
NMZ532>537-010300-
EASTCENTRAL PLAINS

CITY           SKY/WX    TMP DP  RH WIND       PRES   REMARKS
TUCUMCARI      PTCLDY    85  48  27 S15       29.95R
CANNON AFB     CLEAR     79  49  34 S10       30.03R
CLOVIS AIRPORT CLEAR     77  48  36 S9        30.04R

$$
NMZ028-029-538-010300-
SOUTHEAST PLAINS

CITY           SKY/WX    TMP DP  RH WIND       PRES   REMARKS
ROSWELL        CLEAR     86  49  27 S10       29.97R
ARTESIA        CLEAR     84  48  28 SE10      29.98R
CARLSBAD       NOT AVBL


$$


USA.gov is the U.S. government's official web portal to all federal, state and local government web resources and services.